| time (UTC) | temp F | wind direction | speed knots | gust knots | rain 1hr in | rain 24hr in | rain mn in | humidity % | barometer mb |
| 20260903043710 | 75 | 301 | 0.0 | 0.0 | 0.00 | 0.00 | 0.00 | 85 | 1050.6 |
| 20260903043209 | 75 | 301 | 0.0 | 0.9 | 0.00 | 0.00 | 0.00 | 86 | 1050.8 |
| 20260903042708 | 75 | 301 | 0.0 | 0.0 | 0.00 | 0.00 | 0.00 | 87 | 1050.9 |
| 20260903042203 | 76 | 301 | 0.0 | 0.0 | 0.00 | 0.00 | 0.00 | 85 | 1050.9 |
| 20260903041659 | 76 | 301 | 0.0 | 0.0 | 0.00 | 0.00 | 0.00 | 84 | 1050.7 |
| 20260903041155 | 76 | 301 | 0.0 | 0.0 | 0.00 | 0.00 | 0.00 | 82 | 1051.0 |
| 20260903040654 | 76 | 301 | 0.0 | 0.0 | 0.00 | 0.00 | 0.00 | 81 | 1050.9 |
| 20260903040150 | 76 | 301 | 0.0 | 0.0 | 0.00 | 0.00 | 0.00 | 83 | 1050.9 |
| 20260903035646 | 76 | 301 | 0.0 | 0.0 | 0.00 | 0.00 | 0.00 | 84 | 1050.7 |
| 20260903035142 | 76 | 301 | 0.0 | 0.0 | 0.00 | 0.00 | 0.00 | 83 | 1050.8 |
| 20260903034642 | 76 | 301 | 0.0 | 0.0 | 0.00 | 0.00 | 0.00 | 83 | 1050.8 |
| 20260903034136 | 76 | 301 | 0.0 | 0.0 | 0.00 | 0.00 | 0.00 | 83 | 1050.9 |
| 20260903033632 | 76 | 301 | 0.0 | 0.0 | 0.00 | 0.00 | 0.00 | 84 | 1050.8 |
| 20260903033132 | 76 | 301 | 0.0 | 0.0 | 0.00 | 0.00 | 0.00 | 84 | 1050.9 |
| 20260903032627 | 76 | 301 | 0.0 | 0.0 | 0.00 | 0.00 | 0.00 | 85 | 1050.9 |
| 20260903032123 | 76 | 301 | 0.0 | 0.0 | 0.00 | 0.00 | 0.00 | 85 | 1051.0 |
| 20260903031618 | 76 | 301 | 0.0 | 0.0 | 0.00 | 0.00 | 0.00 | 86 | 1051.0 |
| 20260903031113 | 76 | 301 | 0.0 | 0.0 | 0.00 | 0.00 | 0.00 | 85 | 1051.0 |
| 20260903030609 | 76 | 301 | 0.0 | 0.0 | 0.00 | 0.00 | 0.00 | 84 | 1051.0 |
| 20260903030104 | 76 | 301 | 0.0 | 0.9 | 0.00 | 0.00 | 0.00 | 83 | 1050.9 |
| 20260903025605 | 77 | 301 | 0.0 | 0.0 | 0.00 | 0.00 | 0.00 | 83 | 1050.9 |
| 20260903025100 | 77 | 301 | 0.0 | 0.0 | 0.00 | 0.00 | 0.00 | 82 | 1051.0 |
| 20260903024555 | 77 | 301 | 0.0 | 0.0 | 0.00 | 0.00 | 0.00 | 81 | 1051.0 |
| 20260903024049 | 77 | 301 | 0.0 | 0.9 | 0.00 | 0.00 | 0.00 | 82 | 1051.1 |
| 20260903023544 | 78 | 301 | 0.9 | 0.9 | 0.00 | 0.00 | 0.00 | 81 | 1051.1 |
| 20260903023040 | 78 | 301 | 0.9 | 0.9 | 0.00 | 0.00 | 0.00 | 79 | 1050.9 |
| 20260903022539 | 78 | 301 | 0.9 | 0.9 | 0.00 | 0.00 | 0.00 | 79 | 1051.0 |
| 20260903022038 | 78 | 301 | 0.0 | 0.9 | 0.00 | 0.00 | 0.00 | 80 | 1051.0 |
| 20260903021533 | 78 | 301 | 0.9 | 0.9 | 0.00 | 0.00 | 0.00 | 80 | 1051.0 |
| 20260903021028 | 78 | 301 | 0.9 | 0.9 | 0.00 | 0.00 | 0.00 | 79 | 1051.1 |
| 20260903020524 | 78 | 301 | 0.9 | 0.9 | 0.00 | 0.00 | 0.00 | 79 | 1050.8 |
| 20260903020023 | 78 | 301 | 0.0 | 0.0 | 0.00 | 0.00 | 0.00 | 78 | 1051.1 |
| 20260903015519 | 78 | 301 | 0.0 | 0.0 | 0.00 | 0.00 | 0.00 | 78 | 1051.2 |
| 20260903015014 | 78 | 301 | 0.0 | 0.9 | 0.00 | 0.00 | 0.00 | 77 | 1051.2 |
| 20260903014508 | 79 | 301 | 0.0 | 0.0 | 0.00 | 0.00 | 0.00 | 77 | 1051.0 |
| 20260903014003 | 79 | 301 | 0.0 | 0.0 | 0.00 | 0.00 | 0.00 | 76 | 1051.1 |
| 20260903013502 | 80 | 301 | 0.0 | 0.0 | 0.00 | 0.00 | 0.00 | 74 | 1050.9 |
| 20260903013002 | 80 | 301 | 0.0 | 0.0 | 0.00 | 0.00 | 0.00 | 73 | 1051.2 |
| 20260903012501 | 80 | 301 | 0.0 | 0.0 | 0.00 | 0.00 | 0.00 | 72 | 1050.9 |
| 20260903012000 | 80 | 301 | 0.0 | 0.9 | 0.00 | 0.00 | 0.00 | 72 | 1050.9 |
| 20260903011455 | 81 | 301 | 0.0 | 0.9 | 0.00 | 0.00 | 0.00 | 72 | 1050.9 |
| 20260903010951 | 81 | 301 | 0.0 | 0.9 | 0.00 | 0.00 | 0.00 | 71 | 1050.8 |
| 20260903010451 | 81 | 301 | 0.0 | 0.0 | 0.00 | 0.00 | 0.00 | 70 | 1050.8 |
| 20260903005948 | 82 | 301 | 0.0 | 0.0 | 0.00 | 0.00 | 0.00 | 69 | 1050.8 |
| 20260903005444 | 82 | 301 | 0.0 | 0.0 | 0.00 | 0.00 | 0.00 | 69 | 1050.8 |
| 20260903004941 | 83 | 301 | 0.0 | 0.0 | 0.00 | 0.00 | 0.00 | 67 | 1050.9 |
| 20260903004441 | 83 | 301 | 0.0 | 0.0 | 0.00 | 0.00 | 0.00 | 66 | 1050.7 |
| 20260903003936 | 83 | 301 | 0.0 | 0.0 | 0.00 | 0.00 | 0.00 | 65 | 1050.6 |
| 20260903003436 | 84 | 301 | 0.9 | 0.9 | 0.00 | 0.00 | 0.00 | 65 | 1050.7 |
| 20260903002932 | 84 | 301 | 0.9 | 0.0 | 0.00 | 0.00 | 0.00 | 66 | 1050.7 |
| 20260903002427 | 84 | 301 | 0.0 | 0.0 | 0.00 | 0.00 | 0.00 | 66 | 1050.7 |
| 20260903001926 | 84 | 301 | 0.0 | 0.0 | 0.00 | 0.00 | 0.00 | 66 | 1050.5 |
| 20260903001426 | 85 | 301 | 0.0 | 0.0 | 0.00 | 0.00 | 0.00 | 67 | 1050.7 |
| 20260903000926 | 85 | 301 | 0.0 | 0.0 | 0.00 | 0.00 | 0.00 | 66 | 1050.6 |
| 20260903000421 | 86 | 301 | 0.0 | 0.0 | 0.00 | 0.00 | 0.00 | 64 | 1050.7 |
| 20260902235919 | 87 | 301 | 0.0 | 0.0 | 0.00 | 0.00 | 0.00 | 61 | 1050.6 |
| 20260902235415 | 88 | 301 | 0.0 | 0.0 | 0.00 | 0.00 | 0.00 | 59 | 1050.5 |
| 20260902234915 | 89 | 301 | 0.0 | 0.0 | 0.00 | 0.00 | 0.00 | 59 | 1050.8 |
| 20260902234410 | 89 | 301 | 0.0 | 0.0 | 0.00 | 0.00 | 0.00 | 60 | 1050.9 |
| 20260902233909 | 89 | 301 | 0.0 | 0.0 | 0.00 | 0.00 | 0.00 | 61 | 1050.8 |
| 20260902233403 | 89 | 301 | 0.0 | 0.0 | 0.00 | 0.00 | 0.00 | 61 | 1050.7 |
| 20260902232902 | 90 | 301 | 0.0 | 0.0 | 0.00 | 0.00 | 0.00 | 61 | 1050.8 |
| 20260902232357 | 90 | 301 | 0.0 | 0.0 | 0.00 | 0.00 | 0.00 | 56 | 1050.8 |
| 20260902231856 | 91 | 301 | 0.0 | 0.9 | 0.00 | 0.00 | 0.00 | 57 | 1050.7 |
| 20260902231351 | 91 | 301 | 0.9 | 0.9 | 0.00 | 0.00 | 0.00 | 55 | 1050.5 |
| 20260902230846 | 91 | 301 | 0.9 | 0.9 | 0.00 | 0.00 | 0.00 | 53 | 1050.7 |
| 20260902230346 | 91 | 301 | 0.9 | 0.9 | 0.00 | 0.00 | 0.00 | 52 | 1050.8 |
| 20260902225845 | 91 | 301 | 1.7 | 0.9 | 0.00 | 0.00 | 0.00 | 51 | 1050.7 |
| 20260902225341 | 92 | 300 | 1.7 | 1.7 | 0.00 | 0.00 | 0.00 | 50 | 1050.7 |
| 20260902224839 | 92 | 289 | 1.7 | 1.7 | 0.00 | 0.00 | 0.00 | 49 | 1050.6 |
| 20260902224334 | 92 | 260 | 1.7 | 1.7 | 0.00 | 0.00 | 0.00 | 51 | 1050.8 |
| 20260902223832 | 92 | 289 | 0.9 | 0.9 | 0.00 | 0.00 | 0.00 | 51 | 1050.8 |
| 20260902223332 | 92 | 289 | 2.6 | 2.6 | 0.00 | 0.00 | 0.00 | 50 | 1050.8 |
| 20260902222831 | 92 | 298 | 1.7 | 1.7 | 0.00 | 0.00 | 0.00 | 50 | 1050.7 |
| 20260902222330 | 92 | 290 | 2.6 | 2.6 | 0.00 | 0.00 | 0.00 | 49 | 1050.9 |
| 20260902221824 | 92 | 290 | 2.6 | 2.6 | 0.00 | 0.00 | 0.00 | 50 | 1050.8 |
| 20260902221323 | 92 | 277 | 1.7 | 2.6 | 0.00 | 0.00 | 0.00 | 48 | 1051.0 |
| 20260902220819 | 92 | 295 | 2.6 | 2.6 | 0.00 | 0.00 | 0.00 | 49 | 1050.9 |
| 20260902220319 | 93 | 286 | 2.6 | 2.6 | 0.00 | 0.00 | 0.00 | 47 | 1050.8 |
| 20260902215815 | 93 | 293 | 1.7 | 3.5 | 0.00 | 0.00 | 0.00 | 51 | 1051.0 |
| 20260902215314 | 93 | 293 | 0.9 | 0.9 | 0.00 | 0.00 | 0.00 | 51 | 1051.0 |
| 20260902214811 | 93 | 294 | 2.6 | 2.6 | 0.00 | 0.00 | 0.00 | 47 | 1051.1 |
| 20260902214310 | 93 | 302 | 3.5 | 3.5 | 0.00 | 0.00 | 0.00 | 50 | 1050.9 |
| 20260902213805 | 94 | 285 | 3.5 | 5.2 | 0.00 | 0.00 | 0.00 | 47 | 1051.0 |
| 20260902213301 | 94 | 277 | 1.7 | 3.5 | 0.00 | 0.00 | 0.00 | 45 | 1051.1 |
| 20260902212759 | 94 | 218 | 1.7 | 1.7 | 0.00 | 0.00 | 0.00 | 49 | 1051.2 |
| 20260902212256 | 94 | 218 | 2.6 | 2.6 | 0.00 | 0.00 | 0.00 | 49 | 1051.3 |
| 20260902211752 | 94 | 307 | 1.7 | 6.1 | 0.00 | 0.00 | 0.00 | 50 | 1051.3 |
| 20260902211248 | 94 | 295 | 1.7 | 2.6 | 0.00 | 0.00 | 0.00 | 47 | 1051.3 |
| 20260902210747 | 94 | 272 | 1.7 | 6.1 | 0.00 | 0.00 | 0.00 | 49 | 1051.2 |
| 20260902210243 | 94 | 301 | 2.6 | 3.5 | 0.00 | 0.00 | 0.00 | 44 | 1051.0 |
| 20260902205740 | 94 | 308 | 2.6 | 2.6 | 0.00 | 0.00 | 0.00 | 48 | 1051.4 |
| 20260902205236 | 94 | 301 | 3.5 | 5.2 | 0.00 | 0.00 | 0.00 | 48 | 1051.1 |
| 20260902204731 | 94 | 298 | 6.1 | 8.7 | 0.00 | 0.00 | 0.00 | 45 | 1051.1 |
| 20260902204226 | 94 | 241 | 1.7 | 2.6 | 0.00 | 0.00 | 0.00 | 46 | 1051.3 |
| 20260902203721 | 94 | 296 | 5.2 | 7.0 | 0.00 | 0.00 | 0.00 | 46 | 1051.4 |
| 20260902203221 | 94 | 242 | 3.5 | 5.2 | 0.00 | 0.00 | 0.00 | 48 | 1051.2 |
| 20260902202716 | 94 | 300 | 5.2 | 6.1 | 0.00 | 0.00 | 0.00 | 45 | 1051.4 |
| 20260902202213 | 94 | 290 | 3.5 | 5.2 | 0.00 | 0.00 | 0.00 | 47 | 1051.7 |
| 20260902201709 | 94 | 296 | 3.5 | 7.0 | 0.00 | 0.00 | 0.00 | 47 | 1051.3 |
| 20260902201208 | 94 | 319 | 2.6 | 5.2 | 0.00 | 0.00 | 0.00 | 46 | 1051.4 |
| 20260902200703 | 94 | 296 | 2.6 | 5.2 | 0.00 | 0.00 | 0.00 | 47 | 1051.5 |
| 20260902200159 | 94 | 277 | 5.2 | 7.8 | 0.00 | 0.00 | 0.00 | 47 | 1051.5 |
| 20260902195654 | 94 | 283 | 2.6 | 3.5 | 0.00 | 0.00 | 0.00 | 49 | 1051.7 |
| 20260902195154 | 94 | 240 | 2.6 | 6.1 | 0.00 | 0.00 | 0.00 | 48 | 1051.7 |
| 20260902194653 | 94 | 235 | 0.9 | 3.5 | 0.00 | 0.00 | 0.00 | 48 | 1051.7 |
| 20260902194148 | 95 | 296 | 4.3 | 6.1 | 0.00 | 0.00 | 0.00 | 49 | 1052.0 |
| 20260902193644 | 96 | 184 | 1.7 | 2.6 | 0.00 | 0.00 | 0.00 | 45 | 1051.7 |
| 20260902193144 | 95 | 227 | 2.6 | 5.2 | 0.00 | 0.00 | 0.00 | 48 | 1051.9 |
| 20260902192643 | 94 | 221 | 1.7 | 3.5 | 0.00 | 0.00 | 0.00 | 50 | 1052.0 |
| 20260902192142 | 93 | 260 | 1.7 | 1.7 | 0.00 | 0.00 | 0.00 | 51 | 1051.9 |
| 20260902191638 | 94 | 258 | 1.7 | 3.5 | 0.00 | 0.00 | 0.00 | 49 | 1052.0 |
| 20260902191137 | 94 | 302 | 3.5 | 7.0 | 0.00 | 0.00 | 0.00 | 49 | 1052.1 |
| 20260902190633 | 94 | 293 | 1.7 | 5.2 | 0.00 | 0.00 | 0.00 | 49 | 1052.2 |
| 20260902190127 | 94 | 298 | 3.5 | 7.8 | 0.00 | 0.00 | 0.00 | 50 | 1052.2 |
| 20260902185623 | 95 | 297 | 3.5 | 6.1 | 0.00 | 0.00 | 0.00 | 47 | 1052.1 |
| 20260902185119 | 94 | 305 | 1.7 | 3.5 | 0.00 | 0.00 | 0.00 | 45 | 1052.2 |
| 20260902184614 | 94 | 264 | 0.9 | 3.5 | 0.00 | 0.00 | 0.00 | 46 | 1052.2 |
| 20260902184109 | 94 | 252 | 2.6 | 6.1 | 0.00 | 0.00 | 0.00 | 51 | 1052.2 |
| 20260902183606 | 94 | 198 | 3.5 | 5.2 | 0.00 | 0.00 | 0.00 | 50 | 1052.5 |
| 20260902183102 | 93 | 283 | 3.5 | 5.2 | 0.00 | 0.00 | 0.00 | 50 | 1052.2 |
| 20260902182557 | 93 | 261 | 3.5 | 8.7 | 0.00 | 0.00 | 0.00 | 48 | 1052.5 |
| 20260902182054 | 93 | 287 | 0.9 | 3.5 | 0.00 | 0.00 | 0.00 | 48 | 1052.4 |
| 20260902181550 | 93 | 280 | 5.2 | 7.0 | 0.00 | 0.00 | 0.00 | 50 | 1052.4 |
| 20260902181049 | 93 | 308 | 3.5 | 5.2 | 0.00 | 0.00 | 0.00 | 51 | 1052.4 |
| 20260902180544 | 93 | 210 | 3.5 | 6.1 | 0.00 | 0.00 | 0.00 | 50 | 1052.4 |
| 20260902180040 | 94 | 316 | 3.5 | 7.8 | 0.00 | 0.00 | 0.00 | 50 | 1052.3 |
| 20260902175539 | 94 | 250 | 4.3 | 5.2 | 0.00 | 0.00 | 0.00 | 50 | 1052.7 |
| 20260902175036 | 93 | 308 | 1.7 | 3.5 | 0.00 | 0.00 | 0.00 | 55 | 1052.5 |
| 20260902174532 | 93 | 296 | 1.7 | 3.5 | 0.00 | 0.00 | 0.00 | 51 | 1052.7 |
| 20260902174027 | 93 | 213 | 3.5 | 3.5 | 0.00 | 0.00 | 0.00 | 52 | 1052.8 |
| 20260902173527 | 93 | 221 | 4.3 | 6.1 | 0.00 | 0.00 | 0.00 | 55 | 1052.8 |
| 20260902173027 | 93 | 304 | 5.2 | 7.0 | 0.00 | 0.00 | 0.00 | 50 | 1053.1 |
| 20260902172526 | 93 | 185 | 3.5 | 5.2 | 0.00 | 0.00 | 0.00 | 53 | 1053.1 |
| 20260902172022 | 92 | 293 | 2.6 | 6.1 | 0.00 | 0.00 | 0.00 | 54 | 1052.9 |
| 20260902171517 | 92 | 263 | 2.6 | 6.1 | 0.00 | 0.00 | 0.00 | 54 | 1053.3 |
| 20260902171013 | 92 | 296 | 7.8 | 7.8 | 0.00 | 0.00 | 0.00 | 51 | 1053.3 |
| 20260902170508 | 93 | 227 | 3.5 | 6.1 | 0.00 | 0.00 | 0.00 | 50 | 1053.2 |
| 20260902170004 | 93 | 249 | 1.7 | 5.2 | 0.00 | 0.00 | 0.00 | 55 | 1053.4 |
| 20260902165504 | 92 | 294 | 3.5 | 3.5 | 0.00 | 0.00 | 0.00 | 54 | 1053.3 |
| 20260902165004 | 92 | 306 | 6.1 | 7.0 | 0.00 | 0.00 | 0.00 | 55 | 1053.5 |
| 20260902164459 | 92 | 210 | 2.6 | 3.5 | 0.00 | 0.00 | 0.00 | 54 | 1053.5 |
| 20260902163957 | 92 | 286 | 2.6 | 3.5 | 0.00 | 0.00 | 0.00 | 58 | 1053.5 |
| 20260902163454 | 92 | 210 | 1.7 | 2.6 | 0.00 | 0.00 | 0.00 | 57 | 1053.7 |
| 20260902162951 | 92 | 244 | 3.5 | 5.2 | 0.00 | 0.00 | 0.00 | 57 | 1053.6 |
| 20260902162446 | 91 | 305 | 1.7 | 2.6 | 0.00 | 0.00 | 0.00 | 57 | 1053.7 |
| 20260902161946 | 92 | 279 | 3.5 | 5.2 | 0.00 | 0.00 | 0.00 | 56 | 1053.6 |
| 20260902161442 | 91 | 206 | 2.6 | 3.5 | 0.00 | 0.00 | 0.00 | 57 | 1053.6 |
| 20260902160938 | 92 | 294 | 5.2 | 5.2 | 0.00 | 0.00 | 0.00 | 57 | 1053.9 |
| 20260902160433 | 91 | 302 | 0.9 | 2.6 | 0.00 | 0.00 | 0.00 | 62 | 1053.7 |
| 20260902155931 | 91 | 284 | 1.7 | 3.5 | 0.00 | 0.00 | 0.00 | 59 | 1053.6 |
| 20260902155427 | 91 | 298 | 2.6 | 5.2 | 0.00 | 0.00 | 0.00 | 59 | 1053.7 |
| 20260902154920 | 91 | 295 | 0.9 | 3.5 | 0.00 | 0.00 | 0.00 | 58 | 1053.8 |
| 20260902154416 | 90 | 338 | 1.7 | 3.5 | 0.00 | 0.00 | 0.00 | 59 | 1053.8 |
| 20260902153915 | 90 | 288 | 5.2 | 7.0 | 0.00 | 0.00 | 0.00 | 59 | 1053.9 |
| 20260902153414 | 90 | 302 | 2.6 | 2.6 | 0.00 | 0.00 | 0.00 | 61 | 1053.7 |
| 20260902152910 | 90 | 289 | 2.6 | 2.6 | 0.00 | 0.00 | 0.00 | 62 | 1053.8 |
| 20260902152406 | 89 | 271 | 1.7 | 1.7 | 0.00 | 0.00 | 0.00 | 59 | 1053.8 |
| 20260902151902 | 90 | 259 | 2.6 | 3.5 | 0.00 | 0.00 | 0.00 | 63 | 1053.9 |
| 20260902151357 | 89 | 248 | 0.0 | 0.9 | 0.00 | 0.00 | 0.00 | 64 | 1054.1 |
| 20260902150856 | 89 | 290 | 0.9 | 1.7 | 0.00 | 0.00 | 0.00 | 63 | 1053.7 |
| 20260902150353 | 88 | 290 | 1.7 | 3.5 | 0.00 | 0.00 | 0.00 | 65 | 1053.7 |
| 20260902145852 | 88 | 281 | 1.7 | 1.7 | 0.00 | 0.00 | 0.00 | 63 | 1053.7 |
| 20260902145347 | 87 | 266 | 2.6 | 2.6 | 0.00 | 0.00 | 0.00 | 65 | 1053.7 |
| 20260902144842 | 88 | 319 | 3.5 | 6.1 | 0.00 | 0.00 | 0.00 | 65 | 1053.7 |
| 20260902144338 | 88 | 260 | 1.7 | 1.7 | 0.00 | 0.00 | 0.00 | 64 | 1053.6 |
| 20260902143833 | 87 | 311 | 0.9 | 0.9 | 0.00 | 0.00 | 0.00 | 67 | 1053.8 |
| 20260902143333 | 87 | 296 | 1.7 | 2.6 | 0.00 | 0.00 | 0.00 | 67 | 1053.8 |
| 20260902142830 | 87 | 279 | 1.7 | 2.6 | 0.00 | 0.00 | 0.00 | 67 | 1053.7 |
| 20260902142325 | 86 | 298 | 1.7 | 2.6 | 0.00 | 0.00 | 0.00 | 68 | 1053.8 |
| 20260902141820 | 86 | 266 | 1.7 | 2.6 | 0.00 | 0.00 | 0.00 | 68 | 1053.9 |
| 20260902141316 | 85 | 288 | 1.7 | 2.6 | 0.00 | 0.00 | 0.00 | 70 | 1053.8 |
| 20260902140815 | 85 | 293 | 0.9 | 2.6 | 0.00 | 0.00 | 0.00 | 73 | 1053.7 |
| 20260902140310 | 84 | 283 | 2.6 | 2.6 | 0.00 | 0.00 | 0.00 | 70 | 1053.7 |
| 20260902135809 | 84 | 306 | 1.7 | 2.6 | 0.00 | 0.00 | 0.00 | 69 | 1053.6 |
| 20260902135307 | 84 | 264 | 2.6 | 2.6 | 0.00 | 0.00 | 0.00 | 71 | 1053.6 |
| 20260902134805 | 84 | 243 | 1.7 | 2.6 | 0.00 | 0.00 | 0.00 | 70 | 1053.8 |
| 20260902134300 | 83 | 292 | 0.9 | 2.6 | 0.00 | 0.00 | 0.00 | 74 | 1053.7 |
| 20260902133756 | 83 | 293 | 2.6 | 5.2 | 0.00 | 0.00 | 0.00 | 74 | 1053.8 |
| 20260902133255 | 83 | 261 | 0.9 | 3.5 | 0.00 | 0.00 | 0.00 | 75 | 1053.6 |
| 20260902132750 | 82 | 291 | 0.9 | 2.6 | 0.00 | 0.00 | 0.00 | 75 | 1053.7 |
| 20260902132246 | 82 | 285 | 2.6 | 2.6 | 0.00 | 0.00 | 0.00 | 77 | 1053.8 |
| 20260902131741 | 81 | 205 | 0.9 | 2.6 | 0.00 | 0.00 | 0.00 | 78 | 1053.7 |
| 20260902131238 | 80 | 208 | 1.7 | 1.7 | 0.00 | 0.00 | 0.00 | 78 | 1053.6 |
| 20260902130737 | 80 | 224 | 0.9 | 2.6 | 0.00 | 0.00 | 0.00 | 79 | 1053.6 |
| 20260902130233 | 79 | 235 | 1.7 | 3.5 | 0.00 | 0.00 | 0.00 | 79 | 1053.6 |
| 20260902125728 | 79 | 225 | 0.9 | 1.7 | 0.00 | 0.00 | 0.00 | 79 | 1053.5 |
| 20260902125224 | 79 | 217 | 0.9 | 2.6 | 0.00 | 0.00 | 0.00 | 81 | 1053.5 |
| 20260902124720 | 78 | 231 | 1.7 | 2.6 | 0.00 | 0.00 | 0.00 | 82 | 1053.4 |
| 20260902124215 | 78 | 219 | 1.7 | 1.7 | 0.00 | 0.00 | 0.00 | 83 | 1053.5 |
| 20260902123711 | 78 | 222 | 1.7 | 3.5 | 0.00 | 0.00 | 0.00 | 82 | 1053.5 |
| 20260902123207 | 77 | 227 | 1.7 | 1.7 | 0.00 | 0.00 | 0.00 | 83 | 1053.4 |
| 20260902122705 | 77 | 227 | 0.9 | 1.7 | 0.00 | 0.00 | 0.00 | 83 | 1053.4 |
| 20260902122202 | 76 | 201 | 0.9 | 1.7 | 0.00 | 0.00 | 0.00 | 83 | 1053.2 |
| 20260902121701 | 76 | 187 | 0.0 | 1.7 | 0.00 | 0.00 | 0.00 | 85 | 1053.1 |
| 20260902121156 | 75 | 186 | 0.0 | 0.9 | 0.00 | 0.00 | 0.00 | 86 | 1053.2 |
| 20260902120652 | 74 | 186 | 0.0 | 0.9 | 0.00 | 0.00 | 0.00 | 87 | 1053.3 |
| 20260902120149 | 74 | 186 | 0.9 | 0.9 | 0.00 | 0.00 | 0.00 | 88 | 1053.1 |
| 20260902115648 | 73 | 186 | 0.0 | 0.9 | 0.00 | 0.00 | 0.00 | 89 | 1052.9 |
| 20260902115144 | 73 | 186 | 0.0 | 0.0 | 0.00 | 0.00 | 0.00 | 89 | 1052.8 |
| 20260902114640 | 73 | 186 | 0.0 | 0.0 | 0.00 | 0.00 | 0.00 | 89 | 1052.9 |
| 20260902114135 | 72 | 186 | 0.0 | 0.9 | 0.00 | 0.00 | 0.00 | 90 | 1052.8 |
| 20260902113631 | 72 | 186 | 0.0 | 0.0 | 0.00 | 0.00 | 0.00 | 91 | 1052.8 |
| 20260902113125 | 72 | 186 | 0.0 | 0.0 | 0.00 | 0.00 | 0.00 | 91 | 1052.8 |
| 20260902112621 | 72 | 186 | 0.0 | 0.0 | 0.00 | 0.00 | 0.00 | 92 | 1052.6 |
| 20260902112118 | 71 | 186 | 0.0 | 0.0 | 0.00 | 0.00 | 0.00 | 93 | 1052.7 |
| 20260902111613 | 71 | 186 | 0.0 | 0.9 | 0.00 | 0.00 | 0.00 | 93 | 1052.6 |
| 20260902111109 | 71 | 186 | 0.0 | 0.0 | 0.00 | 0.00 | 0.00 | 93 | 1052.6 |
| 20260902110605 | 71 | 186 | 0.0 | 0.0 | 0.00 | 0.00 | 0.00 | 93 | 1052.7 |
| 20260902110100 | 71 | 186 | 0.0 | 0.0 | 0.00 | 0.00 | 0.00 | 94 | 1052.6 |
| 20260902105555 | 70 | 186 | 0.0 | 0.0 | 0.00 | 0.00 | 0.00 | 94 | 1052.6 |
| 20260902105054 | 70 | 186 | 0.0 | 0.0 | 0.00 | 0.00 | 0.00 | 94 | 1052.5 |
| 20260902104551 | 70 | 186 | 0.0 | 0.0 | 0.00 | 0.00 | 0.00 | 94 | 1052.2 |
| 20260902104051 | 70 | 186 | 0.0 | 0.0 | 0.00 | 0.00 | 0.00 | 94 | 1052.4 |
| 20260902103546 | 70 | 186 | 0.0 | 0.0 | 0.00 | 0.00 | 0.00 | 94 | 1052.2 |
| 20260902103041 | 70 | 186 | 0.0 | 0.9 | 0.00 | 0.00 | 0.00 | 94 | 1052.4 |
| 20260902102537 | 70 | 186 | 0.0 | 0.0 | 0.00 | 0.00 | 0.00 | 94 | 1052.5 |
| 20260902102034 | 70 | 186 | 0.0 | 0.0 | 0.00 | 0.00 | 0.00 | 94 | 1052.2 |
| 20260902101529 | 70 | 186 | 0.0 | 0.0 | 0.00 | 0.00 | 0.00 | 94 | 1052.4 |
| 20260902101028 | 70 | 186 | 0.0 | 0.0 | 0.00 | 0.00 | 0.00 | 94 | 1052.2 |
| 20260902100523 | 71 | 186 | 0.0 | 0.0 | 0.00 | 0.00 | 0.00 | 94 | 1052.2 |
| 20260902100023 | 71 | 186 | 0.0 | 0.0 | 0.00 | 0.00 | 0.00 | 94 | 1052.2 |
| 20260902095522 | 71 | 186 | 0.0 | 0.0 | 0.00 | 0.00 | 0.00 | 94 | 1052.2 |
| 20260902095021 | 71 | 186 | 0.0 | 0.0 | 0.00 | 0.00 | 0.00 | 93 | 1052.2 |
| 20260902094517 | 71 | 186 | 0.0 | 0.0 | 0.00 | 0.00 | 0.00 | 93 | 1052.1 |
| 20260902094013 | 71 | 186 | 0.0 | 0.0 | 0.00 | 0.00 | 0.00 | 93 | 1052.2 |
| 20260902093508 | 71 | 186 | 0.0 | 0.0 | 0.00 | 0.00 | 0.00 | 93 | 1052.0 |
| 20260902093007 | 71 | 186 | 0.0 | 0.0 | 0.00 | 0.00 | 0.00 | 93 | 1052.1 |
| 20260902092503 | 71 | 186 | 0.0 | 0.0 | 0.00 | 0.00 | 0.00 | 92 | 1052.2 |
| 20260902092003 | 71 | 186 | 0.0 | 0.0 | 0.00 | 0.00 | 0.00 | 92 | 1052.1 |
| 20260902091458 | 71 | 186 | 0.0 | 0.9 | 0.00 | 0.00 | 0.00 | 92 | 1052.1 |
| 20260902090954 | 72 | 186 | 0.0 | 0.0 | 0.00 | 0.00 | 0.00 | 91 | 1052.1 |
| 20260902090449 | 72 | 186 | 0.0 | 0.0 | 0.00 | 0.00 | 0.00 | 91 | 1052.1 |
| 20260902085948 | 72 | 186 | 0.0 | 0.0 | 0.00 | 0.00 | 0.00 | 91 | 1051.9 |
| 20260902085443 | 72 | 186 | 0.0 | 0.0 | 0.00 | 0.00 | 0.00 | 90 | 1052.1 |
| 20260902084938 | 73 | 186 | 0.0 | 0.0 | 0.00 | 0.00 | 0.00 | 89 | 1052.1 |
| 20260902084435 | 73 | 186 | 0.0 | 0.0 | 0.00 | 0.00 | 0.00 | 88 | 1052.1 |
| 20260902083931 | 74 | 186 | 0.0 | 0.0 | 0.00 | 0.00 | 0.00 | 87 | 1052.0 |
| 20260902083430 | 74 | 186 | 0.0 | 0.0 | 0.00 | 0.00 | 0.00 | 87 | 1052.1 |
| 20260902082924 | 74 | 186 | 0.0 | 0.0 | 0.00 | 0.00 | 0.00 | 87 | 1051.9 |
| 20260902082420 | 74 | 186 | 0.9 | 0.9 | 0.00 | 0.00 | 0.00 | 86 | 1051.8 |
| 20260902081917 | 74 | 186 | 0.9 | 0.9 | 0.00 | 0.00 | 0.00 | 86 | 1052.0 |
| 20260902081413 | 74 | 186 | 0.9 | 0.9 | 0.00 | 0.00 | 0.00 | 86 | 1051.6 |
| 20260902080908 | 74 | 186 | 0.9 | 0.9 | 0.00 | 0.00 | 0.00 | 86 | 1051.8 |
| 20260902080404 | 74 | 186 | 0.0 | 0.0 | 0.00 | 0.00 | 0.00 | 86 | 1052.0 |
| 20260902075903 | 74 | 186 | 0.9 | 1.7 | 0.00 | 0.00 | 0.00 | 86 | 1051.7 |
| 20260902075400 | 74 | 186 | 0.0 | 0.0 | 0.00 | 0.00 | 0.00 | 86 | 1051.7 |
| 20260902074855 | 75 | 186 | 0.0 | 0.0 | 0.00 | 0.00 | 0.00 | 86 | 1051.5 |
| 20260902074350 | 74 | 186 | 0.0 | 0.9 | 0.00 | 0.00 | 0.00 | 87 | 1051.6 |
| 20260902073845 | 74 | 186 | 0.9 | 0.9 | 0.00 | 0.00 | 0.00 | 88 | 1051.7 |
| 20260902073342 | 74 | 186 | 0.0 | 0.9 | 0.00 | 0.00 | 0.00 | 88 | 1051.8 |
| 20260902072838 | 74 | 186 | 0.0 | 0.9 | 0.00 | 0.00 | 0.00 | 86 | 1051.6 |
| 20260902072333 | 75 | 186 | 0.0 | 0.9 | 0.00 | 0.00 | 0.00 | 85 | 1051.6 |
| 20260902071830 | 75 | 187 | 0.9 | 0.9 | 0.00 | 0.00 | 0.00 | 85 | 1051.6 |
| 20260902071329 | 75 | 187 | 0.0 | 0.9 | 0.00 | 0.00 | 0.00 | 84 | 1051.7 |
| 20260902070826 | 75 | 187 | 0.9 | 0.9 | 0.00 | 0.00 | 0.00 | 84 | 1051.7 |
| 20260902070326 | 76 | 191 | 0.9 | 1.7 | 0.00 | 0.00 | 0.00 | 84 | 1051.6 |
| 20260902065824 | 76 | 205 | 0.9 | 2.6 | 0.00 | 0.00 | 0.00 | 84 | 1051.7 |
| 20260902065320 | 76 | 192 | 0.9 | 1.7 | 0.00 | 0.00 | 0.00 | 84 | 1051.8 |
| 20260902064815 | 76 | 184 | 0.9 | 1.7 | 0.00 | 0.00 | 0.00 | 84 | 1051.7 |
| 20260902064311 | 76 | 190 | 0.9 | 1.7 | 0.00 | 0.00 | 0.00 | 83 | 1051.5 |
| 20260902063806 | 76 | 204 | 0.9 | 1.7 | 0.00 | 0.00 | 0.00 | 84 | 1051.6 |
| 20260902063301 | 75 | 188 | 0.9 | 1.7 | 0.00 | 0.00 | 0.00 | 84 | 1051.8 |
| 20260902062801 | 74 | 177 | 0.9 | 2.6 | 0.00 | 0.00 | 0.00 | 86 | 1052.1 |
| 20260902062255 | 73 | 210 | 0.9 | 1.7 | 0.00 | 0.00 | 0.00 | 90 | 1051.9 |
| 20260902061754 | 73 | 288 | 0.0 | 0.0 | 0.00 | 0.00 | 0.00 | 91 | 1052.0 |
| 20260902061250 | 72 | 288 | 0.0 | 0.0 | 0.00 | 0.00 | 0.00 | 91 | 1051.8 |
| 20260902060747 | 72 | 288 | 0.0 | 0.0 | 0.00 | 0.00 | 0.00 | 91 | 1051.8 |
| 20260902060242 | 72 | 288 | 0.0 | 0.0 | 0.00 | 0.00 | 0.00 | 91 | 1051.8 |
| 20260902055737 | 73 | 288 | 0.0 | 0.0 | 0.00 | 0.00 | 0.00 | 91 | 1052.1 |
| 20260902055234 | 73 | 288 | 0.0 | 0.9 | 0.00 | 0.00 | 0.00 | 91 | 1052.0 |
| 20260902054729 | 73 | 288 | 0.0 | 0.0 | 0.00 | 0.00 | 0.00 | 91 | 1051.9 |
| 20260902054224 | 73 | 288 | 0.0 | 0.0 | 0.00 | 0.00 | 0.00 | 90 | 1051.9 |
| 20260902053720 | 73 | 288 | 0.0 | 0.0 | 0.00 | 0.00 | 0.00 | 91 | 1051.9 |
| 20260902053219 | 73 | 288 | 0.0 | 0.0 | 0.00 | 0.00 | 0.00 | 90 | 1052.1 |
| 20260902052719 | 73 | 288 | 0.0 | 0.0 | 0.00 | 0.00 | 0.00 | 90 | 1051.8 |
| 20260902052215 | 73 | 288 | 0.0 | 0.0 | 0.00 | 0.00 | 0.00 | 90 | 1051.9 |
| 20260902051713 | 73 | 288 | 0.0 | 0.0 | 0.00 | 0.00 | 0.00 | 90 | 1051.9 |
| 20260902051208 | 73 | 288 | 0.0 | 0.0 | 0.00 | 0.00 | 0.00 | 89 | 1051.8 |
| 20260902050703 | 73 | 288 | 0.9 | 0.9 | 0.00 | 0.00 | 0.00 | 90 | 1052.1 |
| 20260902050158 | 73 | 288 | 0.0 | 0.0 | 0.00 | 0.00 | 0.00 | 90 | 1051.8 |
| 20260902045653 | 73 | 288 | 0.0 | 0.0 | 0.00 | 0.00 | 0.00 | 89 | 1051.9 |
| 20260902045149 | 73 | 288 | 0.0 | 0.0 | 0.00 | 0.00 | 0.00 | 89 | 1051.8 |
| 20260902044649 | 74 | 288 | 0.0 | 0.0 | 0.00 | 0.00 | 0.00 | 89 | 1051.8 |
| 20260902044146 | 74 | 288 | 0.0 | 0.0 | 0.00 | 0.00 | 0.00 | 89 | 1052.0 |